Time,TemperatureF,DewpointF,PressureIn,WindDirection,WindDirectionDegrees,WindSpeedMPH,WindSpeedGustMPH,Humidity,HourlyPrecipIn,Conditions,Clouds,dailyrainin,SoftwareType,DateUTC
2013-07-28 00:00:00,64.6,61.6,29.94,SSW,202,2.0,8.0,90,0.00,,---,0.00,VWS V14.01,2013-07-28 07:00:00,
2013-07-28 00:30:00,64.4,61.4,29.94,SE,135,2.0,8.0,90,0.00,,---,0.00,VWS V14.01,2013-07-28 07:30:00,
2013-07-28 01:00:00,64.3,61.6,29.93,SE,135,2.0,6.0,91,0.00,,---,0.00,VWS V14.01,2013-07-28 08:00:00,
2013-07-28 01:30:00,64.1,61.4,29.93,SE,135,1.0,5.0,91,0.00,,---,0.00,VWS V14.01,2013-07-28 08:30:00,
2013-07-28 02:00:00,63.9,61.2,29.92,SE,135,1.0,5.0,91,0.00,,---,0.00,VWS V14.01,2013-07-28 09:00:00,
2013-07-28 02:30:00,63.8,61.1,29.92,SE,135,2.0,5.0,91,0.00,,---,0.00,VWS V14.01,2013-07-28 09:30:00,
2013-07-28 03:00:00,63.6,61.2,29.92,SE,135,3.0,7.0,92,0.00,,---,0.00,VWS V14.01,2013-07-28 10:00:00,
2013-07-28 03:30:00,63.6,61.2,29.92,East,90,3.0,6.0,92,0.00,,---,0.00,VWS V14.01,2013-07-28 10:30:00,
2013-07-28 04:00:00,63.6,61.2,29.92,East,90,2.0,5.0,92,0.00,,---,0.00,VWS V14.01,2013-07-28 11:00:00,
2013-07-28 04:30:00,63.2,61.5,29.92,SSE,158,3.0,6.0,94,0.00,,---,0.00,VWS V14.01,2013-07-28 11:30:00,
2013-07-28 05:00:00,62.7,61.2,29.92,SSE,158,2.0,6.0,95,0.00,,---,0.00,VWS V14.01,2013-07-28 12:00:00,
2013-07-28 05:30:00,62.4,61.0,29.92,SSW,202,2.0,8.0,95,0.00,,---,0.00,VWS V14.01,2013-07-28 12:30:00,
2013-07-28 06:00:00,62.3,60.8,29.93,SSW,202,1.0,6.0,95,0.00,,---,0.00,VWS V14.01,2013-07-28 13:00:00,
2013-07-28 06:30:00,62.2,60.5,29.93,SSW,202,2.0,5.0,94,0.00,,---,0.00,VWS V14.01,2013-07-28 13:30:00,
2013-07-28 07:00:00,62.7,60.7,29.94,SSE,158,1.0,4.0,93,0.00,,---,0.00,VWS V14.01,2013-07-28 14:00:00,
2013-07-28 07:30:00,62.2,60.5,29.93,SSW,202,2.0,5.0,94,0.00,,---,0.00,VWS V14.01,2013-07-28 14:30:00,
2013-07-28 07:58:00,63.9,61.2,29.95,South,169,0.0,3.0,91,0.00,,---,0.00,VWS V14.01,2013-07-28 14:58:00,
2013-07-28 08:00:00,63.9,61.2,29.95,South,169,0.0,3.0,91,0.00,,---,0.00,VWS V14.01,2013-07-28 15:00:00,
2013-07-28 08:28:00,64.3,61.3,29.95,SSE,167,0.0,4.0,90,0.00,,---,0.00,VWS V14.01,2013-07-28 15:28:00,
2013-07-28 08:30:00,64.3,61.3,29.95,SSE,167,0.0,4.0,90,0.00,,---,0.00,VWS V14.01,2013-07-28 15:30:00,
2013-07-28 08:58:00,64.9,61.9,29.95,South,175,2.0,6.0,90,0.00,,---,0.00,VWS V14.01,2013-07-28 15:58:00,
2013-07-28 09:00:00,64.9,61.9,29.95,South,175,2.0,6.0,90,0.00,,---,0.00,VWS V14.01,2013-07-28 16:00:00,
2013-07-28 09:28:00,65.5,61.9,29.95,South,175,3.0,5.0,88,0.00,,---,0.00,VWS V14.01,2013-07-28 16:28:00,
2013-07-28 09:30:00,65.5,61.9,29.95,South,175,3.0,5.0,88,0.00,,---,0.00,VWS V14.01,2013-07-28 16:30:00,
2013-07-28 09:58:00,66.0,62.0,29.95,South,184,4.0,5.0,87,0.00,,---,0.00,VWS V14.01,2013-07-28 16:58:00,
2013-07-28 10:00:00,66.0,62.0,29.95,South,184,4.0,5.0,87,0.00,,---,0.00,VWS V14.01,2013-07-28 17:00:00,
2013-07-28 10:28:00,66.2,62.2,29.95,SSW,204,3.0,8.0,87,0.00,,---,0.00,VWS V14.01,2013-07-28 17:28:00,
2013-07-28 10:30:00,66.2,62.2,29.95,SSW,204,3.0,8.0,87,0.00,,---,0.00,VWS V14.01,2013-07-28 17:30:00,
2013-07-28 10:58:00,67.9,62.9,29.95,SSE,151,0.0,7.0,84,0.00,,---,0.00,VWS V14.01,2013-07-28 17:58:00,
2013-07-28 11:00:00,67.9,62.9,29.95,SSE,151,0.0,7.0,84,0.00,,---,0.00,VWS V14.01,2013-07-28 18:00:00,
2013-07-28 11:28:00,69.0,62.6,29.95,SE,144,4.0,7.0,80,0.00,,---,0.00,VWS V14.01,2013-07-28 18:28:00,
2013-07-28 11:30:00,69.0,62.6,29.95,SE,144,4.0,7.0,80,0.00,,---,0.00,VWS V14.01,2013-07-28 18:30:00,
2013-07-28 11:58:00,70.5,63.3,29.94,SW,233,7.0,9.0,78,0.00,,---,0.00,VWS V14.01,2013-07-28 18:58:00,
2013-07-28 12:00:00,70.5,63.3,29.94,SW,233,7.0,9.0,78,0.00,,---,0.00,VWS V14.01,2013-07-28 19:00:00,
2013-07-28 12:28:00,71.2,63.3,29.94,SSW,200,1.0,12.0,76,0.00,,---,0.00,VWS V14.01,2013-07-28 19:28:00,
2013-07-28 12:30:00,71.2,63.3,29.94,SSW,200,1.0,12.0,76,0.00,,---,0.00,VWS V14.01,2013-07-28 19:30:00,
2013-07-28 12:58:00,72.6,63.5,29.93,SSE,167,7.0,12.0,73,0.00,,---,0.00,VWS V14.01,2013-07-28 19:58:00,
2013-07-28 13:00:00,72.6,63.5,29.93,SSE,167,7.0,12.0,73,0.00,,---,0.00,VWS V14.01,2013-07-28 20:00:00,
2013-07-28 13:28:00,73.0,64.6,29.93,SSW,205,7.0,13.0,75,0.00,,---,0.00,VWS V14.01,2013-07-28 20:28:00,
2013-07-28 13:30:00,73.0,64.6,29.93,SSW,205,7.0,13.0,75,0.00,,---,0.00,VWS V14.01,2013-07-28 20:30:00,
2013-07-28 13:58:00,72.9,64.1,29.92,South,179,7.0,14.0,74,0.00,,---,0.00,VWS V14.01,2013-07-28 20:58:00,
2013-07-28 14:00:00,72.6,63.5,29.93,SSE,167,7.0,12.0,73,0.00,,---,0.00,VWS V14.01,2013-07-28 21:00:00,
2013-07-28 14:28:00,72.8,63.7,29.92,SSW,196,5.0,14.0,73,0.00,,---,0.00,VWS V14.01,2013-07-28 21:28:00,
2013-07-28 14:30:00,72.8,63.7,29.92,SSW,196,5.0,14.0,73,0.00,,---,0.00,VWS V14.01,2013-07-28 21:30:00,
2013-07-28 14:58:00,72.1,63.0,29.92,SSW,195,11.0,15.0,73,0.00,,---,0.00,VWS V14.01,2013-07-28 21:58:00,
2013-07-28 15:00:00,72.1,63.0,29.92,SSW,195,11.0,15.0,73,0.00,,---,0.00,VWS V14.01,2013-07-28 22:00:00,
2013-07-28 15:28:00,71.0,62.7,29.91,SSW,208,6.0,17.0,75,0.00,,---,0.00,VWS V14.01,2013-07-28 22:28:00,
2013-07-28 15:30:00,71.0,62.7,29.91,SSW,208,6.0,17.0,75,0.00,,---,0.00,VWS V14.01,2013-07-28 22:30:00,
2013-07-28 15:58:00,70.7,62.4,29.91,SSE,160,9.0,18.0,75,0.00,,---,0.00,VWS V14.01,2013-07-28 22:58:00,
2013-07-28 16:00:00,70.7,62.4,29.91,SSE,160,9.0,18.0,75,0.00,,---,0.00,VWS V14.01,2013-07-28 23:00:00,
2013-07-28 16:28:00,69.2,61.7,29.90,SSW,196,13.0,20.0,77,0.00,,---,0.00,VWS V14.01,2013-07-28 23:28:00,
2013-07-28 16:30:00,69.2,61.7,29.90,SSW,196,13.0,20.0,77,0.00,,---,0.00,VWS V14.01,2013-07-28 23:30:00,
2013-07-28 16:58:00,68.6,61.5,29.91,SSW,205,6.0,18.0,78,0.00,,---,0.00,VWS V14.01,2013-07-28 23:58:00,
2013-07-28 17:00:00,68.6,61.5,29.91,SSW,205,6.0,18.0,78,0.00,,---,0.00,VWS V14.01,2013-07-29 00:00:00,
2013-07-28 17:28:00,69.4,61.5,29.90,South,188,12.0,16.0,76,0.00,,---,0.00,VWS V14.01,2013-07-29 00:28:00,
2013-07-28 17:30:00,69.4,61.5,29.90,South,188,12.0,16.0,76,0.00,,---,0.00,VWS V14.01,2013-07-29 00:30:00,
2013-07-28 17:58:00,67.8,61.1,29.91,South,174,9.0,16.0,79,0.00,,---,0.00,VWS V14.01,2013-07-29 00:58:00,
2013-07-28 18:00:00,67.8,61.1,29.91,South,174,9.0,16.0,79,0.00,,---,0.00,VWS V14.01,2013-07-29 01:00:00,
2013-07-28 18:28:00,66.3,60.7,29.90,SSE,167,8.0,17.0,82,0.00,,---,0.00,VWS V14.01,2013-07-29 01:28:00,
2013-07-28 18:30:00,66.3,60.7,29.90,SSE,167,8.0,17.0,82,0.00,,---,0.00,VWS V14.01,2013-07-29 01:30:00,
2013-07-28 19:00:00,66.3,60.7,29.91,South,180,7.0,13.0,82,0.00,,---,0.00,VWS V14.01,2013-07-29 02:00:00,
2013-07-28 19:30:00,66.3,60.7,29.90,SSE,167,8.0,17.0,82,0.00,,---,0.00,VWS V14.01,2013-07-29 02:30:00,
2013-07-28 20:00:00,65.2,60.6,29.91,South,180,4.0,8.0,85,0.00,,---,0.00,VWS V14.01,2013-07-29 03:00:00,
2013-07-28 20:30:00,64.1,60.2,29.92,South,180,4.0,9.0,87,0.00,,---,0.00,VWS V14.01,2013-07-29 03:30:00,
2013-07-28 21:00:00,63.6,60.3,29.92,South,180,2.0,7.0,89,0.00,,---,0.00,VWS V14.01,2013-07-29 04:00:00,
2013-07-28 21:30:00,64.1,60.2,29.92,South,180,4.0,9.0,87,0.00,,---,0.00,VWS V14.01,2013-07-29 04:30:00,
2013-07-28 22:00:00,62.8,60.1,29.94,SSE,158,5.0,10.0,91,0.00,,---,0.00,VWS V14.01,2013-07-29 05:00:00,
2013-07-28 22:30:00,63.1,60.1,29.94,South,180,4.0,9.0,90,0.00,,---,0.00,VWS V14.01,2013-07-29 05:30:00,
2013-07-28 23:00:00,63.4,60.4,29.95,South,180,4.0,8.0,90,0.00,,---,0.00,VWS V14.01,2013-07-29 06:00:00,
2013-07-28 23:30:00,63.6,60.6,29.95,South,180,2.0,7.0,90,0.00,,---,0.00,VWS V14.01,2013-07-29 06:30:00,